Location: Lipowiec
(50.4667°N, 22.8500°E)
Time: 21:04:15
(UTC+00:00)

Daily predictions for brighter satellites

Satellite Brightness Start Highest point End
(mag) Time Altitude Azimuth Time Altitude Azimuth Time Altitude Azimuth
BREEZE-M DEB (TANK) 4.0 19:14:26 10° W 19:18:04 83° S 19:31:00 10° E
SPOT 1/Viking Rocket 3.6 19:21:12 10° SSE 19:26:19 70° ENE 19:31:29 10° N
Cosmos-2242 3.1 19:25:12 10° N 19:29:35 89° E 19:33:56 10° S
Cosmos 1400 Rocket 2.9 19:27:31 10° NNW 19:31:32 83° W 19:35:27 10° S
Alouette 2 Rocket 3.6 19:29:14 10° NNW 19:33:00 90° WSW 19:38:01 10° SSE
Cosmos 2221 3.9 19:30:42 10° N 19:34:26 27° ENE 19:38:08 10° SE
Lacrosse 5 rocket 3.1 19:33:42 10° WNW 19:37:37 34° N 19:41:20 10° ENE
Resurs 01 Rocket 3.1 19:34:43 10° SSW 19:38:46 35° W 19:42:51 10° NNW
NOSS 3-4 (A) 4.5 19:33:21 10° NW 19:39:53 50° NE 19:47:06 10° ESE
NOSS 7 (D) 4.4 19:37:12 10° SW 19:39:58 60° NW 19:42:36 10° NE
NOSS 3-4 (C) 4.5 19:33:27 10° NW 19:39:59 49° NE 19:47:12 10° ESE
Terra 2.5 19:36:19 10° SE 19:40:49 43° ENE 19:45:19 10° N
SAR-Lupe-2 3.8 19:40:39 10° NNE 19:44:11 52° ESE 19:47:41 10° S
BREEZE-M DEB (TANK) 4.2 19:41:47 10° SSW 19:44:42 16° SSE 19:46:26 10° ESE
Cosmos 2322 Rocket 3.5 19:43:23 10° SW 19:48:44 44° NW 19:54:08 10° NNE
BREEZE M DEB (TANK) 3.1 19:47:37 10° W 19:50:02 25° SSW 19:51:25 14° SSE
NOSS 3-3 (A) 4.2 19:45:53 10° SSW 19:51:26 46° ESE 19:57:41 10° NE
NOSS 3-3 (C) 4.2 19:46:00 10° SSW 19:51:33 46° ESE 19:57:48 10° NE
CZ-4B DEB 4.4 19:50:13 10° SSE 19:53:34 82° WSW 19:56:57 10° NNW
Cosmos 1455 4.1 19:51:40 10° NNW 19:54:59 28° W 19:58:19 10° SSW
Cosmos 1758 Rocket 4.3 19:51:22 10° SSW 19:55:48 57° WNW 20:00:16 10° N
SL-24 R/B - RUBIN 2 4.5 19:51:45 10° SSW 19:57:51 78° SE 20:04:33 10° NE
USA 245 4.3 19:55:43 10° S 19:59:00 42° W 20:03:10 10° NNW
Cosmos 1328 4.4 19:57:12 10° SSW 20:01:06 57° WNW 20:05:03 10° N
Cosmos 1538 Rocket 4.1 20:01:04 10° S 20:06:20 62° ESE 20:11:36 10° NNE
ATLAS 2AS CENTAUR R/B 3.3 20:00:16 10° NW 20:07:57 61° NE 20:14:58 10° ESE
Cosmos 2181 Rocket 4.1 20:04:26 10° NNW 20:10:48 80° W 20:17:03 10° S
COSMOS 2428 2.7 20:05:38 10° SSW 20:11:12 63° ESE 20:16:50 10° NE
Cosmos 2322 3.9 20:08:18 10° SSW 20:14:02 82° WNW 20:19:48 10° NNE
Cosmos 2074 Rocket 4.2 20:09:51 11° SSE 20:15:43 55° E 20:21:47 10° NNE
Cosmos 2084 3.8 20:11:43 10° NW 20:16:06 57° SW 20:19:31 16° SSE
Cosmos 1953 Rocket 4.1 20:14:48 10° SSW 20:19:03 58° WNW 20:23:21 10° N
Cosmos 773 Rocket 4.3 20:14:49 10° SSW 20:20:07 73° WNW 20:25:26 10° NNE
USA 215 3.4 20:14:50 10° ENE 20:21:15 53° SE 20:27:37 10° SW
ERS-1 Rocket 3.4 20:16:49 10° S 20:21:47 58° W 20:26:46 10° NNW
Cosmos 2237 Rocket 3.0 20:17:54 13° SSE 20:22:14 34° ESE 20:27:18 10° NE
ATLAS CENTAUR R/B 1.7 20:18:44 10° NW 20:22:16 43° WSW 20:24:46 17° S
Meteor 1-27 4.5 20:17:09 10° NNW 20:22:51 71° W 20:28:18 11° S
Cosmos 2219 Rocket 2.1 20:17:27 10° SSW 20:23:03 83° ESE 20:28:42 10° NNE
Cosmos 1869 3.3 20:20:02 10° N 20:24:02 74° E 20:27:01 17° SSE
Gblst 52 Del rocket 4.5 20:19:30 10° WNW 20:25:05 58° SSW 20:30:21 14° SE
Cosmos 1842 Rocket 3.5 20:21:34 10° N 20:25:57 88° WSW 20:29:24 16° S
Cosmos 2360 Rocket 3.5 20:20:36 10° WSW 20:25:58 43° NW 20:31:23 10° NNE
SPOT 5 3.3 20:23:12 11° S 20:27:55 58° W 20:32:37 10° NNW
CZ-4C R/B 4.3 20:24:50 10° NW 20:30:36 32° NNE 20:37:16 10° E
Atlas Centaur 2 4.4 20:33:04 10° SSW 20:34:17 10° S 20:34:39 10° S
Cosmos 2333 Rocket 2.4 20:31:16 10° SW 20:36:58 77° WNW 20:42:45 10° NNE
GEOS 3 Rocket 3.9 20:31:54 10° NE 20:37:19 77° NW 20:42:42 10° SW
BREEZE-M DEB (TANK) 3.9 20:43:57 19° SE 20:44:26 19° ESE 20:48:47 10° E
ALOS 2 4.2 20:41:33 12° ESE 20:44:43 24° ENE 20:48:15 10° N
NOSS 0 Rocket 4.0 20:38:56 10° SSW 20:44:58 61° ESE 20:51:03 10° NE
Cosmos 1315 Rocket 4.1 20:42:32 10° NNW 20:46:19 36° W 20:49:46 12° SSW
Cosmos 2056 Rocket 4.0 20:42:46 10° NNW 20:48:06 56° ENE 20:52:07 18° SE
Meteor 2-2 Rocket 4.4 20:42:43 10° NNW 20:48:33 74° W 20:53:03 17° S
Iridium 2 4.3 20:45:09 10° N 20:48:51 45° E 20:50:54 23° SE
EO 1 Del DPAF 4.3 20:50:06 10° NE 20:53:28 30° E 20:54:56 22° SE
Cosmos 1892 2.6 20:51:28 21° S 20:53:53 75° E 20:57:42 10° NNE
Cosmos 2278 Rocket 2.4 20:49:16 10° NW 20:54:52 63° WSW 20:58:50 20° S
ATLAS 5 CENTAUR R/B 3.4 20:50:55 10° W 20:54:58 37° NNW 20:59:34 10° NE
USA 267 3.3 20:49:19 14° SE 20:55:08 77° SW 21:01:44 10° WNW
Cosmos 2297 4.3 20:51:46 10° NNW 20:57:22 50° NE 21:01:57 15° SE
Cosmos 1943 Rocket 3.7 20:53:18 10° NNW 20:58:19 30° NE 21:03:17 10° ESE
Cosmos 1606 4.1 20:56:54 10° N 21:00:21 29° ENE 21:02:25 18° ESE
MTI 3.9 20:57:16 10° N 21:00:21 69° WNW 21:02:17 20° SSW
Cosmos 44 4.3 21:02:28 21° SE 21:03:23 23° ESE 21:06:50 10° ENE
Cosmos 1680 Rocket 3.6 20:59:29 16° S 21:03:41 66° ESE 21:08:58 10° NNE
Cosmos 1408 2.6 21:03:39 27° SSE 21:05:22 61° E 21:08:55 10° NNE
SL-16 R/B 3.2 21:04:44 20° SE 21:07:20 29° ESE 21:12:09 10° NE
Cosmos 371 Rocket 4.2 21:04:38 10° NNW 21:09:15 40° ENE 21:12:43 16° ESE
Cosmos 2221 3.7 21:08:03 10° NNW 21:12:06 37° W 21:15:14 15° SSW
Cosmos 2184 Rocket 4.4 21:08:51 10° SSW 21:15:00 63° WNW 21:21:18 10° N
Lacrosse 5 rocket 2.7 21:13:38 10° NW 21:17:30 37° NNE 21:21:09 10° E
Terra 3.4 21:14:58 12° SSW 21:18:43 28° W 21:22:49 10° NW
In-Cosmos 22 Rocket 4.3 21:14:18 14° SSW 21:18:55 68° WNW 21:24:15 10° N
CREW DRAGON DEMO-1 DEB 3.6 21:21:24 33° ESE 21:21:24 33° ESE 21:23:41 10° E
Cosmos 923 Rocket 4.2 21:16:23 10° SSW 21:21:37 74° WNW 21:26:57 10° NNE
Cosmos 1766 Rocket 4.1 21:24:23 26° SSE 21:26:22 43° E 21:30:34 10° NNE
Cosmos 1328 Rocket 4.2 21:22:40 10° N 21:26:50 45° ENE 21:29:03 24° SE
Cosmos 2058 3.7 21:27:37 15° SW 21:30:47 46° WNW 21:34:49 10° N
NOSS 3-4 (A) 4.0 21:24:16 10° NW 21:31:04 59° SW 21:36:03 22° SSE
NOSS 3-4 (C) 4.0 21:24:22 10° NW 21:31:11 60° SW 21:36:11 22° SSE
Okean 3 Rocket 3.8 21:30:13 28° SSE 21:32:21 57° E 21:36:42 10° NNE
Cosmos 2218 Rocket 4.4 21:32:57 23° SSE 21:36:47 51° E 21:42:51 10° NNE
Cosmos 1624 Rocket 4.2 21:33:09 10° NNW 21:38:20 62° WSW 21:41:12 26° S
TIMED 4.4 21:36:53 25° SSW 21:39:21 80° ESE 21:43:45 10° NNE
Cosmos 2366 rocket 4.4 21:37:17 23° SSE 21:41:06 53° E 21:47:13 10° NNE
Cosmos 1825 2.2 21:39:57 29° SSW 21:41:47 75° W 21:45:36 10° N
Cosmos 1340 3.6 21:40:48 28° SE 21:41:56 35° E 21:45:24 10° NNE
EO 1 Delta rocket 4.3 21:39:25 10° N 21:44:27 79° WNW 21:48:46 20° SSW
Cosmos 2369 Rocket 3.1 21:41:19 10° NNW 21:46:40 43° NE 21:51:34 12° ESE
Cosmos 1980 4.1 21:42:25 10° SW 21:48:00 62° WNW 21:53:38 10° NNE
Aureole 2 Rocket 2.2 21:45:36 10° NNW 21:48:23 54° WSW 21:48:50 47° SSW
IRIDIUM 106 4.5 21:46:03 27° SSE 21:48:53 64° E 21:54:03 10° N
Cosmos 304 Rocket 4.5 21:48:39 10° NNW 21:53:20 48° ENE 21:56:32 19° SE
COSMOS 2455 3.0 21:48:00 10° NW 21:54:03 72° NE 21:58:41 18° SE
Thor Agena Rocket 3.9 21:52:44 10° N 21:57:48 62° WNW 22:01:29 18° SW
Cosmos 2151 3.3 21:55:43 25° SSW 21:58:05 62° WNW 22:02:21 10° N
Cosmos 1933 3.2 21:54:03 10° N 21:58:06 90° S 21:59:44 35° S
ATLAS 2AS CENTAUR R/B 3.3 21:51:43 10° NW 21:58:46 45° WSW 22:02:38 24° S
Helios 1A 3.3 21:57:31 27° SE 21:59:33 56° ENE 22:03:38 10° N
Cosmos 2341 Rocket 4.1 21:55:15 21° SSW 21:59:33 77° W 22:05:48 10° N
DELTA 2 R/B (1) 4.4 21:57:04 10° SW 22:01:15 27° S 22:01:15 27° S
BREEZE-M DEB (TANK) 2.5 22:00:56 10° W 22:03:24 30° SW 22:03:24 30° SW
SL-4 R/B 1.4 22:04:30 44° NNE 22:04:30 44° NNE 22:06:08 10° N
USA 215 3.6 21:57:55 10° ENE 22:04:27 71° NNW 22:10:58 10° WSW
Genesis I 3.8 22:00:58 11° WSW 22:04:37 56° NW 22:08:29 10° NE
Cosmos 2237 Rocket 3.0 22:00:35 10° SW 22:06:07 50° NW 22:11:42 10° NNE
Cosmos 2219 Rocket 4.4 22:03:11 10° W 22:07:43 24° NW 22:12:16 10° NNE
Cosmos 2344 3.6 22:06:08 10° SW 22:13:36 88° NW 22:22:00 10° NE
Meteor 2-12 Rocket 4.4 22:09:55 25° S 22:13:39 88° E 22:19:50 10° N
Cosmos 1151 Rocket 3.3 22:09:37 10° NNW 22:13:54 60° W 22:15:44 31° SSW
SL-8 Rocket 4.0 22:11:02 23° SSW 22:15:01 78° W 22:21:13 10° N
Cosmos 1782 3.0 22:11:56 10° N 22:15:52 61° ENE 22:17:28 33° SE
Cosmos 1408 Rocket 3.5 22:15:03 33° S 22:16:59 83° E 22:21:26 10° NNE
CZ-4C R/B 3.2 22:13:25 10° NW 22:20:19 68° NE 22:28:23 10° SE
Cosmos 332 Rocket 3.7 22:15:42 10° NNW 22:20:30 74° WSW 22:22:47 31° S
ALOS 2 3.2 22:18:57 28° SSW 22:20:49 46° W 22:25:04 10° NNW
Cosmos 1420 Rocket 4.4 22:16:18 10° NNW 22:21:25 51° WSW 22:23:56 28° SSW
Cosmos 1346 Rocket 2.9 22:20:27 37° SSE 22:21:48 61° E 22:25:42 10° NNE
Helios 1B rocket 3.9 22:18:51 10° NE 22:22:19 25° E 22:23:47 21° SE
ATLAS 5 CENTAUR R/B 4.4 22:21:12 10° NNW 22:22:44 15° NNE 22:24:54 10° ENE
SL-16 R/B 4.4 22:20:43 10° ESE 22:25:33 24° NE 22:30:25 10° N
Cosmos 1727 Rocket 4.0 22:19:27 10° N 22:25:43 87° W 22:29:28 26° S
Cosmos 1500 Rocket 3.9 22:24:24 31° SSE 22:26:13 53° E 22:30:31 10° NNE
GP-B 3.8 22:26:36 10° N 22:30:51 45° W 22:33:05 25° SW
Cosmos 1633 2.5 22:32:54 42° S 22:34:01 79° E 22:37:39 10° NNE
Cosmos 1606 4.2 22:32:42 10° NNW 22:36:00 27° W 22:37:25 21° SW
Cosmos 2278 Rocket 4.4 22:36:33 10° W 22:37:48 11° W 22:39:02 10° WSW
RESURS DK-1 2.7 22:34:29 10° NNW 22:38:36 63° NE 22:41:06 23° SE
USA 267 4.3 22:36:39 23° SSW 22:38:51 27° SW 22:44:17 10° WNW
Cosmos 1331 Rocket 4.2 22:36:35 10° NNW 22:41:54 69° ENE 22:45:33 20° SE
Cosmos 1943 Rocket 2.3 22:36:52 10° NW 22:42:30 63° WSW 22:45:29 28° S
Cosmos 1805 Rocket 4.4 22:41:36 26° SE 22:43:28 39° E 22:47:32 10° NNE
Cosmos 1943 4.0 22:41:16 24° SSE 22:43:53 38° ESE 22:49:05 10° NE
Cosmos 44 3.5 22:40:50 16° WSW 22:44:12 58° NW 22:48:39 10° NE
Cosmos 1048 Rocket 4.1 22:42:50 29° S 22:45:32 70° ESE 22:50:47 10° NNE
Gbstr 26 Del rocket 2.9 22:44:19 36° SSW 22:45:34 52° SSE 22:49:44 10° ENE
Landsat 4 3.6 22:43:25 10° NNE 22:47:14 80° ESE 22:48:35 38° S
Cosmos 371 Rocket 4.3 22:45:16 10° NW 22:49:33 32° WSW 22:51:21 24° SW
SL-16 R/B 2.7 22:46:35 16° SW 22:51:08 57° NW 22:56:46 10° NNE
Meteor 1-29 4.3 22:49:51 10° NE 22:52:50 28° E 22:53:47 24° SE
APEX 4.3 22:52:16 10° WNW 22:53:52 19° W 22:53:52 19° W
Cosmos 1862 3.8 22:53:29 31° SSE 22:55:01 50° E 22:58:54 10° NNE
Cosmos 405 3.5 22:51:52 10° NNW 22:55:17 46° W 22:56:11 36° SW
CREW DRAGON DEMO-1 DEB 2.9 22:53:23 10° W 22:56:28 76° N 22:59:33 10° ENE
Lacrosse 5 rocket 1.0 22:52:57 10° WNW 22:56:57 77° SW 22:59:15 23° SE
Cosmos 1452 Rocket 4.2 22:52:14 10° NW 22:57:06 39° WSW 22:59:20 26° SSW
Cosmos 1515 Rocket 4.4 22:54:23 10° NNW 22:58:24 37° W 23:00:08 26° SW
Cosmos 1110 Rocket 4.0 22:54:42 10° NNW 23:00:01 81° WSW 23:03:08 25° SSE
Cosmos 389 Rocket 3.7 22:59:23 10° N 23:02:40 35° ENE 23:04:34 20° SE
ISS -2.0 23:04:52 20° ESE 23:04:52 20° ESE 23:06:45 10° E
SeaSat 1 4.1 23:02:02 10° NE 23:05:52 22° ESE 23:08:09 16° SE
Cosmos 1707 Rocket 3.9 23:04:28 10° N 23:08:55 60° ENE 23:11:31 23° SSE
Cosmos 2228 Rocket 3.8 23:15:06 10° NNW 23:19:26 42° W 23:21:26 27° SW
Resurs 1-4 Rocket 3.6 23:15:33 10° NE 23:20:06 28° E 23:23:48 14° SE
Cosmos 1302 Rocket 4.1 23:15:59 10° NNW 23:21:14 77° ENE 23:25:17 17° SSE
Meteor 2-6 Rocket 4.4 23:20:23 10° NNW 23:25:43 54° W 23:28:38 26° SSW
Cosmos 1603 3.7 23:22:36 25° SSW 23:26:05 88° ESE 23:31:51 10° NNE
Meteor 1-10 Rocket 4.3 23:21:38 10° NNW 23:27:09 63° W 23:30:21 25° S
ADEOS II 4.4 23:26:25 10° NE 23:29:11 14° E 23:31:56 10° ESE
SWARM C 4.5 23:26:13 10° N 23:29:34 83° E 23:30:47 37° S
Cosmos 1862 Rocket 4.3 23:25:17 10° N 23:29:36 49° ENE 23:32:57 16° SSE
SWARM A 4.1 23:26:17 10° N 23:29:39 88° W 23:30:49 38° S
CZ-4 R/B 4.0 23:25:05 10° N 23:29:43 63° WNW 23:32:25 25° SW
Cosmos 1633 Rocket 3.6 23:27:34 23° SSE 23:29:58 49° E 23:34:14 10° NNE
Cosmos 2369 Rocket 2.8 23:25:30 10° NW 23:30:40 39° WSW 23:33:18 25° SSW
Sich 1 3.0 23:29:53 30° S 23:32:00 89° E 23:36:23 10° N
SL-4 R/B 2.6 23:32:14 23° SE 23:32:29 24° ESE 23:34:51 10° ENE
DELTA 2 DEB (DPAF) 4.4 23:29:43 18° SSE 23:32:55 65° ENE 23:37:22 10° N
IRAS Rocket 4.3 23:28:43 17° SSE 23:33:03 79° ENE 23:38:34 10° NNW
Cosmos 44 Rocket 3.2 23:32:07 28° SSW 23:34:34 70° SE 23:39:20 10° NE
Cosmos 1821 Rocket 4.2 23:30:58 22° SSW 23:34:53 59° WNW 23:40:56 10° N
Cosmos 2123 Rocket 4.0 23:30:28 10° NNW 23:36:40 74° W 23:40:48 22° S
Lacrosse 5 3.7 23:36:20 14° SSE 23:38:12 17° ESE 23:41:27 10° E
COSMOS 2455 4.0 23:34:37 10° NW 23:39:30 26° WSW 23:41:47 21° SW
Cosmos 1656 Rocket 3.7 23:35:39 10° NW 23:40:59 59° WSW 23:44:30 21° S
USA 215 4.2 23:40:46 10° ENE 23:47:04 51° N 23:53:21 10° WNW
Cosmos 1812 3.5 23:46:21 10° NNW 23:49:57 37° W 23:51:25 26° SW
CZ-2D R/B 2.7 23:48:16 10° NNE 23:53:24 49° E 23:57:20 17° S
